Weather History for Farmington, MO

Change the Weather History Date:

Saturday, November 24, 2012

  Actual Average Record
Temperature  
Mean Temperature 32 °F -  
Max Temperature 39 °F 50 °F 66 °F (2006)
Min Temperature 24 °F 33 °F 12 °F (2013)
Degree Days  
Heating Degree Days 34    
Moisture  
Dew Point 17 °F    
Average Humidity 56    
Maximum Humidity 69    
Minimum Humidity 39    
Precipitation  
Precipitation 0.00 in - - ()
Sea Level Pressure  
Sea Level Pressure 30.24 in    
Wind  
Wind Speed 7 mph (West)    
Max Wind Speed 13 mph    
Max Gust Speed 16 mph    
Visibility 10 miles    
Events      
Averages and records for this station are not official NWS values.
T = Trace of Precipitation, MM = Missing Value Source: NWS Daily Summary

Daily Weather History Graph

Daily Weather History Graph

Search for Another Location

Airport:

Trip Planner

Search our weather history database for the weather conditions in past years. The results will help you decide how hot, cold, wet, or windy it might be!

Date:

Astronomy

Nov. 24, 2012 Rise Set
Actual Time 6:51 AM CST 4:45 PM CST
Civil Twilight 6:23 AM CST 5:13 PM CST
Nautical Twilight 5:51 AM CST 5:45 PM CST
Astronomical Twilight 5:19 AM CST 6:17 PM CST
Moon 2:27 PM CST (11/24) 3:11 AM CST (11/24)
Length of Visible Light 10h 50m
Length of Day
9h 53m
Waxing Gibbous, 87% of the Moon is Illuminated
Nov 24
Waxing Gibbous
Nov 28
Full
Dec 6
Last Quarter
Dec 13
New
Dec 19
First Quarter

Hourly Weather History & Observations

Time (CST) Temp. Windchill Dew Point Humidity Pressure Visibility Wind Dir Wind Speed Gust Speed Precip Events Conditions
12:15 AM 28.4 °F 20.4 °F 15.8 °F 59% 30.34 in 10.0 mi NW 8.1 mph - N/A   Clear
12:35 AM 28.4 °F 19.7 °F 15.8 °F 59% 30.34 in 10.0 mi NW 9.2 mph - N/A   Clear
12:55 AM 28.4 °F 20.4 °F 17.6 °F 64% 30.33 in 10.0 mi NW 8.1 mph - N/A   Clear
1:15 AM 26.6 °F 16.8 °F 17.6 °F 69% 30.33 in 10.0 mi NW 10.4 mph - N/A   Clear
1:35 AM 26.6 °F 16.2 °F 15.8 °F 64% 30.33 in 10.0 mi NW 11.5 mph - N/A   Clear
1:55 AM 26.6 °F 16.8 °F 15.8 °F 64% 30.33 in 10.0 mi NW 10.4 mph - N/A   Clear
2:15 AM 26.6 °F 18.2 °F 15.8 °F 64% 30.32 in 10.0 mi NW 8.1 mph - N/A   Clear
2:35 AM 26.6 °F 17.5 °F 15.8 °F 64% 30.32 in 10.0 mi NW 9.2 mph - N/A   Clear
2:55 AM 26.6 °F 15.7 °F 15.8 °F 64% 30.32 in 10.0 mi NW 12.7 mph 16.1 mph N/A   Clear
3:15 AM 26.6 °F 17.5 °F 15.8 °F 64% 30.32 in 10.0 mi NW 9.2 mph - N/A   Clear
3:35 AM 26.6 °F 17.5 °F 15.8 °F 64% 30.31 in 10.0 mi NW 9.2 mph - N/A   Clear
3:55 AM 26.6 °F 17.5 °F 15.8 °F 64% 30.31 in 10.0 mi NW 9.2 mph - N/A   Clear
4:15 AM 24.8 °F 14.6 °F 15.8 °F 69% 30.31 in 10.0 mi NW 10.4 mph - N/A   Clear
4:35 AM 24.8 °F 16.1 °F 15.8 °F 69% 30.31 in 10.0 mi NW 8.1 mph - N/A   Clear
4:55 AM 24.8 °F 16.1 °F 15.8 °F 69% 30.32 in 10.0 mi NW 8.1 mph - N/A   Clear
5:15 AM 24.8 °F 16.9 °F 15.8 °F 69% 30.32 in 10.0 mi NW 6.9 mph - N/A   Clear
5:35 AM 24.8 °F 16.1 °F 15.8 °F 69% 30.32 in 10.0 mi NW 8.1 mph - N/A   Clear
5:55 AM 24.8 °F 16.9 °F 15.8 °F 69% 30.32 in 10.0 mi NW 6.9 mph - N/A   Clear
6:15 AM 24.8 °F 16.9 °F 15.8 °F 69% 30.33 in 10.0 mi WNW 6.9 mph - N/A   Clear
6:35 AM 24.8 °F 16.1 °F 15.8 °F 69% 30.33 in 10.0 mi WNW 8.1 mph - N/A   Clear
6:55 AM 24.8 °F 17.9 °F 15.8 °F 69% 30.33 in 10.0 mi NW 5.8 mph - N/A   Clear
7:15 AM 24.8 °F 17.9 °F 15.8 °F 69% 30.33 in 10.0 mi NW 5.8 mph - N/A   Clear
7:35 AM 24.8 °F 16.1 °F 15.8 °F 69% 30.33 in 10.0 mi WNW 8.1 mph - N/A   Clear
7:55 AM 24.8 °F 15.3 °F 15.8 °F 69% 30.33 in 10.0 mi NW 9.2 mph - N/A   Clear
8:15 AM 24.8 °F 16.9 °F 15.8 °F 69% 30.34 in 10.0 mi NW 6.9 mph - N/A   Clear
8:35 AM 26.6 °F 19.1 °F 15.8 °F 64% 30.34 in 10.0 mi NW 6.9 mph - N/A   Clear
8:55 AM 26.6 °F 17.5 °F 15.8 °F 64% 30.35 in 10.0 mi NW 9.2 mph - N/A   Clear
9:15 AM 28.4 °F 20.4 °F 15.8 °F 59% 30.34 in 10.0 mi WNW 8.1 mph - N/A   Clear
9:35 AM 28.4 °F 21.2 °F 15.8 °F 59% 30.35 in 10.0 mi NW 6.9 mph - N/A   Clear
9:55 AM 28.4 °F 21.2 °F 15.8 °F 59% 30.34 in 10.0 mi NW 6.9 mph - N/A   Clear
10:15 AM 30.2 °F 23.4 °F 15.8 °F 55% 30.34 in 10.0 mi NW 6.9 mph - N/A   Clear
10:35 AM 30.2 °F 24.3 °F 15.8 °F 55% 30.33 in 10.0 mi NNW 5.8 mph - N/A   Clear
10:55 AM 32.0 °F 25.6 °F 15.8 °F 51% 30.32 in 10.0 mi NW 6.9 mph - N/A   Clear
11:15 AM 33.8 °F 28.6 °F 17.6 °F 52% 30.32 in 10.0 mi NNW 5.8 mph - N/A   Clear
11:35 AM 33.8 °F 30.8 °F 17.6 °F 52% 30.30 in 10.0 mi NNE 3.5 mph - N/A   Clear
11:55 AM 33.8 °F 29.6 °F 15.8 °F 48% 30.30 in 10.0 mi NNW 4.6 mph - N/A   Clear
12:15 PM 35.6 °F 32.8 °F 17.6 °F 48% 30.28 in 10.0 mi WSW 3.5 mph - N/A   Clear
12:35 PM 35.6 °F - 15.8 °F 44% 30.27 in 10.0 mi Calm Calm - N/A   Clear
12:55 PM 35.6 °F 32.8 °F 17.6 °F 48% 30.26 in 10.0 mi NW 3.5 mph - N/A   Clear
1:15 PM 35.6 °F - 15.8 °F 44% 30.25 in 10.0 mi Calm Calm - N/A   Clear
1:35 PM 37.4 °F - 17.6 °F 45% 30.24 in 10.0 mi Calm Calm - N/A   Clear
1:55 PM 37.4 °F 34.9 °F 17.6 °F 45% 30.24 in 10.0 mi SSW 3.5 mph - N/A   Clear
2:15 PM 37.4 °F - 15.8 °F 41% 30.22 in 10.0 mi Calm Calm - N/A   Clear
2:35 PM 39.2 °F - 15.8 °F 39% 30.22 in 10.0 mi Calm Calm - N/A   Clear
2:55 PM 39.2 °F 37.0 °F 17.6 °F 42% 30.22 in 10.0 mi WSW 3.5 mph - N/A   Clear
3:15 PM 39.2 °F - 17.6 °F 42% 30.21 in 10.0 mi Calm Calm - N/A   Clear
3:35 PM 39.2 °F - 17.6 °F 42% 30.20 in 10.0 mi Calm Calm - N/A   Clear
3:55 PM 39.2 °F 35.0 °F 17.6 °F 42% 30.19 in 10.0 mi ESE 5.8 mph - N/A   Clear
4:15 PM 37.4 °F 33.8 °F 17.6 °F 45% 30.19 in 10.0 mi SSE 4.6 mph - N/A   Clear
4:35 PM 37.4 °F - 17.6 °F 45% 30.18 in 10.0 mi Calm Calm - N/A   Clear
4:55 PM 37.4 °F 34.9 °F 17.6 °F 45% 30.18 in 10.0 mi SSE 3.5 mph - N/A   Clear
5:15 PM 37.4 °F 33.8 °F 17.6 °F 45% 30.17 in 10.0 mi SE 4.6 mph - N/A   Clear
5:35 PM 35.6 °F 31.7 °F 17.6 °F 48% 30.16 in 10.0 mi SE 4.6 mph - N/A   Clear
5:55 PM 33.8 °F 29.6 °F 17.6 °F 52% 30.15 in 10.0 mi SE 4.6 mph - N/A   Clear
6:15 PM 33.8 °F 28.6 °F 19.4 °F 56% 30.14 in 10.0 mi SSE 5.8 mph - N/A   Clear
6:35 PM 33.8 °F 28.6 °F 19.4 °F 56% 30.14 in 10.0 mi SSE 5.8 mph - N/A   Clear
6:55 PM 33.8 °F 29.6 °F 19.4 °F 56% 30.13 in 10.0 mi South 4.6 mph - N/A   Clear
7:15 PM 33.8 °F 27.7 °F 19.4 °F 56% 30.12 in 10.0 mi South 6.9 mph - N/A   Clear
7:35 PM 33.8 °F 27.7 °F 17.6 °F 52% 30.12 in 10.0 mi South 6.9 mph - N/A   Clear
7:55 PM 33.8 °F 27.0 °F 17.6 °F 52% 30.11 in 10.0 mi South 8.1 mph - N/A   Clear
8:15 PM 33.8 °F 26.4 °F 17.6 °F 52% 30.10 in 10.0 mi South 9.2 mph - N/A   Clear
8:35 PM 33.8 °F 26.4 °F 17.6 °F 52% 30.10 in 10.0 mi South 9.2 mph - N/A   Clear
8:55 PM 33.8 °F 26.4 °F 17.6 °F 52% 30.09 in 10.0 mi South 9.2 mph - N/A   Clear
9:15 PM 33.8 °F 27.0 °F 17.6 °F 52% 30.09 in 10.0 mi South 8.1 mph - N/A   Clear
9:35 PM 33.8 °F 26.4 °F 19.4 °F 56% 30.08 in 10.0 mi South 9.2 mph - N/A   Clear
9:55 PM 33.8 °F 25.8 °F 19.4 °F 56% 30.08 in 10.0 mi South 10.4 mph - N/A   Clear
10:15 PM 33.8 °F 26.4 °F 19.4 °F 56% 30.08 in 10.0 mi South 9.2 mph - N/A   Clear
10:35 PM 33.8 °F 27.0 °F 19.4 °F 56% 30.07 in 10.0 mi South 8.1 mph - N/A   Clear
10:55 PM 33.8 °F 27.7 °F 19.4 °F 56% 30.07 in 10.0 mi South 6.9 mph - N/A   Clear
11:15 PM 33.8 °F 27.7 °F 19.4 °F 56% 30.07 in 10.0 mi South 6.9 mph - N/A   Clear
11:35 PM 33.8 °F 26.4 °F 19.4 °F 56% 30.07 in 10.0 mi South 9.2 mph - N/A   Clear
11:55 PM 33.8 °F 25.3 °F 19.4 °F 56% 30.06 in 10.0 mi South 11.5 mph - N/A   Clear